�������r�C�����j�^�v���󋵏��
Date,Time,5�C6���@���p�r�C��,����,����(m/s)
2022/03/15,00:00,4.1,�k�k��,0.8
2022/03/15,00:10,4.1,�k,1.2
2022/03/15,00:20,4.0,�k�k��,1.4
2022/03/15,00:30,3.8,�k�k��,0.9
2022/03/15,00:40,3.9,���k��,1.5
2022/03/15,00:50,4.0,�k�k��,0.9
2022/03/15,01:00,4.0,�k,0.6
2022/03/15,01:10,3.9,���k��,1.2
2022/03/15,01:20,4.0,�k�k��,2.0
2022/03/15,01:30,3.8,�k��,2.8
2022/03/15,01:40,4.0,�k�k��,2.6
2022/03/15,01:50,3.9,�k�k��,2.2
2022/03/15,02:00,3.9,�k�k��,2.8
2022/03/15,02:10,4.2,�k�k��,3.2
2022/03/15,02:20,4.1,�k�k��,3.5
2022/03/15,02:30,4.1,�k�k��,3.8
2022/03/15,02:40,4.1,�k�k��,3.8
2022/03/15,02:50,3.9,�k�k��,3.6
2022/03/15,03:00,3.9,�k�k��,4.8
2022/03/15,03:10,3.9,�k�k��,4.2
2022/03/15,03:20,3.9,�k�k��,3.5
2022/03/15,03:30,3.9,�k�k��,3.7
2022/03/15,03:40,3.8,�k�k��,3.4
2022/03/15,03:50,3.9,�k��,3.3
2022/03/15,04:00,4.0,�k�k��,2.0
2022/03/15,04:10,3.9,�k��,3.0
2022/03/15,04:20,4.1,�k�k��,2.6
2022/03/15,04:30,3.9,�k��,3.4
2022/03/15,04:40,4.0,�k�k��,3.7
2022/03/15,04:50,4.0,�k��,4.1
2022/03/15,05:00,3.8,�k��,4.7
2022/03/15,05:10,4.0,�k��,5.2
2022/03/15,05:20,3.9,�k��,5.9
2022/03/15,05:30,4.0,�k��,6.5
2022/03/15,05:40,4.0,�k��,6.4
2022/03/15,05:50,3.9,�k��,7.4
2022/03/15,06:00,4.1,�k�k��,8.2
2022/03/15,06:10,4.0,�k�k��,6.8
2022/03/15,06:20,4.0,�k��,5.4
2022/03/15,06:30,4.0,�k��,5.8
2022/03/15,06:40,4.0,�k�k��,6.3
2022/03/15,06:50,3.9,�k�k��,5.2
2022/03/15,07:00,4.0,�k�k��,5.9
2022/03/15,07:10,3.9,�k�k��,8.0
2022/03/15,07:20,4.0,�k�k��,6.6
2022/03/15,07:30,3.9,�k�k��,5.7
2022/03/15,07:40,4.0,�k�k��,5.6
2022/03/15,07:50,4.0,�k,6.5
2022/03/15,08:00,3.7,�k,6.1
2022/03/15,08:10,4.0,�k,6.0
2022/03/15,08:20,4.0,�k�k��,5.9
2022/03/15,08:30,4.0,�k�k��,5.9
2022/03/15,08:40,3.9,�k�k��,5.2
2022/03/15,08:50,3.8,�k�k��,5.2
2022/03/15,09:00,4.2,�k,4.0
2022/03/15,09:10,4.1,�k,3.1
2022/03/15,09:20,3.9,�k,3.8
2022/03/15,09:30,3.7,�k�k��,5.1
2022/03/15,09:40,3.9,�k,3.4
2022/03/15,09:50,3.9,�k,2.5
2022/03/15,10:00,3.9,�k�k��,2.8
2022/03/15,10:10,3.9,�k,2.3
2022/03/15,10:20,4.2,�k,2.2
2022/03/15,10:30,3.9,�k,2.0
2022/03/15,10:40,4.0,�k,1.9
2022/03/15,10:50,4.0,�k,2.0
2022/03/15,11:00,3.9,�k�k��,2.0
2022/03/15,11:10,3.9,�k�k��,1.5
2022/03/15,11:20,3.9,�k��,1.7
2022/03/15,11:30,3.9,�k�k��,3.2
2022/03/15,11:40,4.2,�k,2.9
2022/03/15,11:50,4.0,�k�k��,3.2
2022/03/15,12:00,4.0,�k�k��,3.7
2022/03/15,12:10,3.9,���k��,10.8
2022/03/15,12:20,4.0,���k��,8.6
2022/03/15,12:30,4.0,���k��,10.6
2022/03/15,12:40,4.0,��,9.6
2022/03/15,12:50,4.0,��,9.1
2022/03/15,13:00,3.9,��,11.7
2022/03/15,13:10,3.9,���k��,14.9
2022/03/15,13:20,4.0,��,11.3
2022/03/15,13:30,4.1,��,16.3
2022/03/15,13:40,3.8,��,11.1
2022/03/15,13:50,3.9,���쐼,16.6
2022/03/15,14:00,4.0,��,17.1
2022/03/15,14:10,4.0,���쐼,11.4
2022/03/15,14:20,4.1,-,CALM
2022/03/15,14:30,3.8,���쐼,13.5
2022/03/15,14:40,4.1,��,12.5
2022/03/15,14:50,3.7,��,11.0
2022/03/15,15:00,4.1,��,11.4
2022/03/15,15:10,3.7,���k��,11.6
2022/03/15,15:20,4.0,���k��,13.5
2022/03/15,15:30,4.1,���k��,14.6
2022/03/15,15:40,4.0,���k��,13.5
2022/03/15,15:50,3.9,���k��,14.7
2022/03/15,16:00,4.0,��,15.8
2022/03/15,16:10,3.9,��,13.3
2022/03/15,16:20,4.0,��,12.1
2022/03/15,16:30,4.1,���k��,13.0
2022/03/15,16:40,4.1,���k��,8.8
2022/03/15,16:50,3.9,���k��,13.5
2022/03/15,17:00,3.9,���k��,13.8
2022/03/15,17:10,3.9,��,11.1
2022/03/15,17:20,3.9,���k��,13.3
2022/03/15,17:30,3.9,���k��,14.2
2022/03/15,17:40,4.1,��,9.3
2022/03/15,17:50,4.0,���k��,11.7
2022/03/15,18:00,3.9,���k��,7.4
2022/03/15,18:10,3.9,�k��,9.8
2022/03/15,18:20,3.8,�k��,8.3
2022/03/15,18:30,3.8,�k��,11.6
2022/03/15,18:40,4.0,�k��,7.4
2022/03/15,18:50,3.9,�k�k��,4.5
2022/03/15,19:00,4.0,�k�k��,3.4
2022/03/15,19:10,3.9,�k,4.5
2022/03/15,19:20,3.9,�k,4.1
2022/03/15,19:30,3.8,�k�k��,1.5
2022/03/15,19:40,4.0,�k��,4.7
2022/03/15,19:50,3.9,�k��,2.0
2022/03/15,20:00,4.0,�k�k��,1.9
2022/03/15,20:10,4.1,�k��,2.5
2022/03/15,20:20,3.9,���k��,1.4
2022/03/15,20:30,3.8,���k��,2.9
2022/03/15,20:40,3.9,�k��,3.7
2022/03/15,20:50,3.9,�k�k��,4.7
2022/03/15,21:00,4.1,�k��,4.7
2022/03/15,21:10,3.7,�k��,4.4
2022/03/15,21:20,4.1,�k�k��,1.7
2022/03/15,21:30,3.9,���k��,1.1
2022/03/15,21:40,4.0,��,2.3
2022/03/15,21:50,4.1,�k�k��,2.0
2022/03/15,22:00,3.9,�k�k��,1.2
2022/03/15,22:10,4.0,���k��,2.0
2022/03/15,22:20,3.8,��,4.4
2022/03/15,22:30,3.9,��,4.1
2022/03/15,22:40,3.8,���k��,3.7
2022/03/15,22:50,4.0,��,2.3
2022/03/15,23:00,4.0,���k��,1.7
2022/03/15,23:10,4.0,�k��,2.6
2022/03/15,23:20,3.8,���k��,2.0
2022/03/15,23:30,3.8,���k��,2.0
2022/03/15,23:40,4.1,�k��,0.6
2022/03/15,23:50,4.0,���k��,2.2
